GLD166 SPJC-SBEG

Flight info

Callsign GLD166
Flight time 2h 43m
Altitude 35000
Route TISLI2 OPROS UT315 VADOS UL306 NUXUM DCT UBLUN DCT ILKOD PUGB1B
Aircraft A320/M-SDFGIRY/S

Departure

Time 2026-04-29 19:28
Airport Jorge Chávez International Airport (SPJC)

Arrival

Time 2026-04-29 22:11
Airport Eduardo Gomes International Airport (SBEG)
Time Latitude Longitude Altitude Speed Heading
2026-04-29 19:14 -12.02518 -77.10875 95 ft 0 kts 60°
2026-04-29 19:15 -12.02525 -77.10886 94 ft 2 kts 60°
2026-04-29 19:16 -12.02533 -77.10902 94 ft 2 kts 60°
2026-04-29 19:16 -12.02545 -77.10916 96 ft 3 kts 25°
2026-04-29 19:16 -12.02562 -77.10920 94 ft 3 kts 349°
2026-04-29 19:16 -12.02577 -77.10914 95 ft 2 kts 332°
2026-04-29 19:17 -12.02578 -77.10914 95 ft 0 kts 332°
2026-04-29 19:17 -12.02570 -77.10918 94 ft 3 kts 332°
2026-04-29 19:18 -12.02545 -77.10933 96 ft 6 kts 329°
2026-04-29 19:18 -12.02519 -77.10950 94 ft 8 kts 328°
2026-04-29 19:18 -12.02457 -77.11017 92 ft 12 kts 304°
2026-04-29 19:18 -12.02404 -77.11097 90 ft 15 kts 305°
2026-04-29 19:19 -12.02311 -77.11164 88 ft 18 kts 333°
2026-04-29 19:19 -12.02185 -77.11225 87 ft 22 kts 335°
2026-04-29 19:19 -12.02037 -77.11295 84 ft 25 kts 335°
2026-04-29 19:19 -12.01869 -77.11376 74 ft 28 kts 334°
2026-04-29 19:20 -12.01683 -77.11469 75 ft 31 kts 334°
2026-04-29 19:20 -12.01482 -77.11570 66 ft 34 kts 333°
2026-04-29 19:20 -12.01266 -77.11681 64 ft 36 kts 333°
2026-04-29 19:20 -12.01034 -77.11793 60 ft 38 kts 336°
2026-04-29 19:21 -12.00792 -77.11907 56 ft 38 kts 335°
2026-04-29 19:21 -12.00695 -77.11957 54 ft 0 kts 329°
2026-04-29 19:22 -12.00690 -77.11960 54 ft 2 kts 327°
2026-04-29 19:22 -12.00680 -77.11978 54 ft 4 kts 279°
2026-04-29 19:23 -12.00677 -77.12015 54 ft 6 kts 269°
2026-04-29 19:23 -12.00679 -77.12067 54 ft 9 kts 265°
2026-04-29 19:23 -12.00716 -77.12119 53 ft 11 kts 219°
2026-04-29 19:23 -12.00763 -77.12136 53 ft 0 kts 168°
2026-04-29 19:24 -12.00765 -77.12136 53 ft 1 kts 168°
2026-04-29 19:24 -12.00773 -77.12133 53 ft 2 kts 162°
2026-04-29 19:24 -12.00779 -77.12131 53 ft 0 kts 162°
2026-04-29 19:24 -12.00780 -77.12131 53 ft 0 kts 162°
2026-04-29 19:26 -12.00783 -77.12130 53 ft 1 kts 162°
2026-04-29 19:26 -12.00784 -77.12130 53 ft 0 kts 162°
2026-04-29 19:26 -12.00785 -77.12129 53 ft 1 kts 162°
2026-04-29 19:27 -12.00810 -77.12120 53 ft 23 kts 160°
2026-04-29 19:27 -12.01168 -77.11940 60 ft 101 kts 152°
2026-04-29 19:27 -12.02016 -77.11524 88 ft 165 kts 155°
2026-04-29 19:27 -12.03149 -77.10997 473 ft 191 kts 157°
2026-04-29 19:28 -12.04450 -77.10394 1048 ft 218 kts 155°
2026-04-29 19:28 -12.05896 -77.09675 1771 ft 244 kts 154°
2026-04-29 19:28 -12.07466 -77.08881 2720 ft 257 kts 154°
2026-04-29 19:28 -12.09085 -77.08064 3863 ft 263 kts 154°
2026-04-29 19:29 -12.10740 -77.07235 4988 ft 267 kts 154°
2026-04-29 19:29 -12.12426 -77.06397 6061 ft 272 kts 156°
2026-04-29 19:29 -12.14193 -77.05966 6927 ft 276 kts 183°
2026-04-29 19:29 -12.16007 -77.06571 7676 ft 279 kts 217°
2026-04-29 19:30 -12.17208 -77.08102 8424 ft 283 kts 249°
2026-04-29 19:30 -12.17446 -77.10092 9161 ft 286 kts 276°
2026-04-29 19:30 -12.17081 -77.12101 9919 ft 289 kts 283°
2026-04-29 19:30 -12.16599 -77.14134 10396 ft 304 kts 283°
2026-04-29 19:31 -12.16083 -77.16307 10578 ft 327 kts 283°
2026-04-29 19:31 -12.15559 -77.18653 10712 ft 349 kts 280°
2026-04-29 19:31 -12.15151 -77.21172 10846 ft 370 kts 281°
2026-04-29 19:31 -12.14474 -77.23776 10980 ft 389 kts 290°
2026-04-29 19:32 -12.13253 -77.26270 11407 ft 398 kts 303°
2026-04-29 19:32 -12.11438 -77.28423 11967 ft 403 kts 318°
2026-04-29 19:32 -12.09146 -77.30083 12563 ft 407 kts 330°
2026-04-29 19:32 -12.06603 -77.31467 13167 ft 410 kts 332°
2026-04-29 19:33 -12.04082 -77.32849 13754 ft 413 kts 331°
2026-04-29 19:33 -12.01466 -77.34086 14310 ft 417 kts 342°
2026-04-29 19:33 -11.98596 -77.34574 14840 ft 421 kts 359°
2026-04-29 19:33 -11.95686 -77.34163 15356 ft 425 kts 17°
2026-04-29 19:34 -11.93015 -77.32871 15854 ft 428 kts 34°
2026-04-29 19:34 -11.90825 -77.30812 16336 ft 431 kts 52°
2026-04-29 19:34 -11.89152 -77.28258 16816 ft 434 kts 58°
2026-04-29 19:34 -11.87539 -77.25644 17282 ft 437 kts 58°
2026-04-29 19:35 -11.85916 -77.23007 17733 ft 440 kts 58°
2026-04-29 19:35 -11.84285 -77.20356 18167 ft 442 kts 58°
2026-04-29 19:35 -11.82644 -77.17691 18595 ft 445 kts 58°
2026-04-29 19:35 -11.80986 -77.15002 19022 ft 448 kts 58°
2026-04-29 19:36 -11.79324 -77.12309 19433 ft 451 kts 58°
2026-04-29 19:36 -11.77646 -77.09592 19836 ft 453 kts 58°
2026-04-29 19:36 -11.75961 -77.06867 20224 ft 456 kts 58°
2026-04-29 19:36 -11.74264 -77.04120 20592 ft 458 kts 58°
2026-04-29 19:37 -11.72564 -77.01365 20928 ft 460 kts 58°
2026-04-29 19:37 -11.71432 -76.99531 21139 ft 462 kts 58°
2026-04-29 19:37 -11.69133 -76.95810 21556 ft 465 kts 58°
2026-04-29 19:37 -11.67405 -76.93018 21844 ft 467 kts 58°
2026-04-29 19:38 -11.65668 -76.90213 22142 ft 469 kts 58°
2026-04-29 19:38 -11.63929 -76.87406 22504 ft 468 kts 58°
2026-04-29 19:38 -11.62190 -76.84594 22927 ft 467 kts 58°
2026-04-29 19:38 -11.60460 -76.81792 23343 ft 467 kts 58°
2026-04-29 19:39 -11.58732 -76.79000 23764 ft 466 kts 58°
2026-04-29 19:39 -11.57001 -76.76210 24184 ft 465 kts 58°
2026-04-29 19:39 -11.55273 -76.73426 24610 ft 464 kts 58°
2026-04-29 19:39 -11.53547 -76.70647 25037 ft 463 kts 58°
2026-04-29 19:40 -11.51801 -76.67832 25472 ft 463 kts 58°
2026-04-29 19:40 -11.50085 -76.65065 25903 ft 462 kts 58°
2026-04-29 19:40 -11.48369 -76.62296 26344 ft 461 kts 58°
2026-04-29 19:40 -11.46662 -76.59540 26784 ft 460 kts 58°
2026-04-29 19:41 -11.44951 -76.56781 27232 ft 459 kts 58°
2026-04-29 19:41 -11.43244 -76.54029 27659 ft 459 kts 58°
2026-04-29 19:41 -11.41541 -76.51286 28085 ft 458 kts 58°
2026-04-29 19:41 -11.39782 -76.48587 28508 ft 457 kts 52°
2026-04-29 19:42 -11.37685 -76.46162 28921 ft 456 kts 44°
2026-04-29 19:42 -11.36946 -76.45433 29052 ft 456 kts 44°
2026-04-29 19:42 -11.33121 -76.41681 29758 ft 455 kts 44°
2026-04-29 19:42 -11.30838 -76.39442 30173 ft 454 kts 44°
2026-04-29 19:43 -11.28565 -76.37213 30577 ft 453 kts 44°
2026-04-29 19:43 -11.26300 -76.34984 30983 ft 453 kts 44°
2026-04-29 19:43 -11.24035 -76.32754 31381 ft 452 kts 44°
2026-04-29 19:43 -11.21776 -76.30533 31773 ft 451 kts 44°
2026-04-29 19:44 -11.19519 -76.28313 32163 ft 451 kts 44°
2026-04-29 19:44 -11.17265 -76.26097 32553 ft 450 kts 44°
2026-04-29 19:44 -11.15020 -76.23890 32941 ft 449 kts 44°
2026-04-29 19:44 -11.12770 -76.21680 33324 ft 448 kts 44°
2026-04-29 19:45 -11.10527 -76.19479 33706 ft 448 kts 44°
2026-04-29 19:45 -11.08286 -76.17283 34084 ft 447 kts 44°
2026-04-29 19:45 -11.06050 -76.15091 34432 ft 446 kts 44°
2026-04-29 19:45 -11.03812 -76.12902 34774 ft 446 kts 44°
2026-04-29 19:46 -11.01574 -76.10715 34971 ft 446 kts 44°
2026-04-29 19:46 -10.97156 -76.06161 35007 ft 459 kts 51°
2026-04-29 19:47 -10.93669 -76.00642 35011 ft 468 kts 59°
2026-04-29 19:47 -10.90896 -75.95856 35007 ft 469 kts 59°
2026-04-29 19:48 -10.87570 -75.90147 35007 ft 469 kts 59°
2026-04-29 19:48 -10.84240 -75.84442 35010 ft 469 kts 59°
2026-04-29 19:49 -10.80898 -75.78738 35011 ft 469 kts 59°
2026-04-29 19:49 -10.77557 -75.73034 35015 ft 470 kts 59°
2026-04-29 19:50 -10.74223 -75.67312 35015 ft 470 kts 59°
2026-04-29 19:50 -10.70890 -75.61597 35018 ft 470 kts 59°
2026-04-29 19:51 -10.67548 -75.55886 35019 ft 470 kts 59°
2026-04-29 19:51 -10.64202 -75.50182 35022 ft 470 kts 59°
2026-04-29 19:52 -10.60850 -75.44470 35023 ft 470 kts 59°
2026-04-29 19:52 -10.57502 -75.38754 35026 ft 471 kts 59°
2026-04-29 19:53 -10.54138 -75.33000 35026 ft 470 kts 59°
2026-04-29 19:53 -10.50792 -75.27286 35027 ft 470 kts 59°
2026-04-29 19:54 -10.45759 -75.18719 35027 ft 470 kts 59°
2026-04-29 19:54 -10.42404 -75.13018 35026 ft 470 kts 59°
2026-04-29 19:55 -10.39048 -75.07322 35025 ft 470 kts 59°
2026-04-29 19:55 -10.35701 -75.01616 35024 ft 470 kts 59°
2026-04-29 19:56 -10.32352 -74.95914 35025 ft 470 kts 59°
2026-04-29 19:56 -10.28993 -74.90208 35026 ft 470 kts 59°
2026-04-29 19:57 -10.26174 -74.85432 35027 ft 470 kts 59°
2026-04-29 19:57 -10.22269 -74.78813 35027 ft 471 kts 59°
2026-04-29 19:58 -10.18912 -74.73114 35027 ft 470 kts 59°
2026-04-29 19:58 -10.15555 -74.67409 35027 ft 470 kts 59°
2026-04-29 19:59 -10.12193 -74.61720 35026 ft 470 kts 59°
2026-04-29 19:59 -10.08827 -74.56027 35025 ft 470 kts 59°
2026-04-29 20:00 -10.05463 -74.50336 35024 ft 470 kts 59°
2026-04-29 20:00 -10.02082 -74.44608 35024 ft 470 kts 59°
2026-04-29 20:01 -9.98725 -74.38919 35024 ft 470 kts 59°
2026-04-29 20:01 -9.95360 -74.33235 35022 ft 470 kts 59°
2026-04-29 20:02 -9.91994 -74.27555 35022 ft 470 kts 59°
2026-04-29 20:02 -9.89200 -74.22831 35022 ft 470 kts 59°
2026-04-29 20:03 -9.85269 -74.16185 35022 ft 470 kts 59°
2026-04-29 20:03 -9.81902 -74.10515 35023 ft 470 kts 59°
2026-04-29 20:04 -9.78530 -74.04838 35020 ft 470 kts 59°
2026-04-29 20:04 -9.75165 -73.99157 35019 ft 470 kts 59°
2026-04-29 20:05 -9.71799 -73.93482 35018 ft 470 kts 59°
2026-04-29 20:05 -9.68428 -73.87812 35019 ft 470 kts 59°
2026-04-29 20:06 -9.65060 -73.82142 35018 ft 470 kts 59°
2026-04-29 20:06 -9.61688 -73.76472 35022 ft 469 kts 59°
2026-04-29 20:07 -9.58311 -73.70810 35016 ft 469 kts 59°
2026-04-29 20:07 -9.54935 -73.65148 35020 ft 469 kts 59°
2026-04-29 20:08 -9.52112 -73.60402 35015 ft 469 kts 59°
2026-04-29 20:08 -9.48172 -73.53782 35017 ft 469 kts 59°
2026-04-29 20:09 -9.44799 -73.48128 35015 ft 469 kts 59°
2026-04-29 20:09 -9.41423 -73.42475 35012 ft 469 kts 59°
2026-04-29 20:10 -9.38054 -73.36815 35015 ft 469 kts 59°
2026-04-29 20:10 -9.34689 -73.31156 35010 ft 469 kts 59°
2026-04-29 20:11 -9.31313 -73.25502 35012 ft 469 kts 59°
2026-04-29 20:11 -9.27937 -73.19850 35013 ft 469 kts 59°
2026-04-29 20:12 -9.24567 -73.14199 35014 ft 469 kts 59°
2026-04-29 20:12 -9.21197 -73.08549 35006 ft 469 kts 59°
2026-04-29 20:13 -9.18387 -73.03853 35005 ft 469 kts 59°
2026-04-29 20:13 -9.14445 -72.97256 35010 ft 469 kts 61°
2026-04-29 20:14 -9.11993 -72.91161 35009 ft 468 kts 72°
2026-04-29 20:14 -9.09922 -72.84910 35005 ft 469 kts 71°
2026-04-29 20:15 -9.07834 -72.78664 35005 ft 469 kts 71°
2026-04-29 20:15 -9.05740 -72.72374 35007 ft 469 kts 71°
2026-04-29 20:16 -9.03669 -72.66118 35009 ft 469 kts 71°
2026-04-29 20:16 -9.01590 -72.59865 35013 ft 469 kts 71°
2026-04-29 20:17 -8.99510 -72.53623 35011 ft 469 kts 71°
2026-04-29 20:17 -8.97423 -72.47359 35013 ft 469 kts 71°
2026-04-29 20:18 -8.95340 -72.41112 35013 ft 469 kts 71°
2026-04-29 20:18 -8.93250 -72.34863 35017 ft 469 kts 71°
2026-04-29 20:19 -8.91158 -72.28609 35017 ft 469 kts 71°
2026-04-29 20:19 -8.89076 -72.22357 35017 ft 469 kts 71°
2026-04-29 20:20 -8.86981 -72.16105 35014 ft 469 kts 71°
2026-04-29 20:20 -8.85227 -72.10864 35014 ft 469 kts 71°
2026-04-29 20:21 -8.83139 -72.04614 35015 ft 469 kts 71°
2026-04-29 20:21 -8.81050 -71.98362 35016 ft 469 kts 71°
2026-04-29 20:22 -8.78952 -71.92109 35019 ft 469 kts 71°
2026-04-29 20:22 -8.76859 -71.85860 35019 ft 470 kts 71°
2026-04-29 20:23 -8.74766 -71.79607 35021 ft 470 kts 71°
2026-04-29 20:23 -8.72670 -71.73349 35019 ft 470 kts 71°
2026-04-29 20:24 -8.70570 -71.67099 35019 ft 470 kts 71°
2026-04-29 20:24 -8.68460 -71.60851 35024 ft 470 kts 71°
2026-04-29 20:25 -8.66358 -71.54597 35023 ft 470 kts 71°
2026-04-29 20:25 -8.64262 -71.48343 35021 ft 470 kts 71°
2026-04-29 20:26 -8.62139 -71.42053 35022 ft 470 kts 71°
2026-04-29 20:26 -8.60026 -71.35800 35025 ft 470 kts 71°
2026-04-29 20:27 -8.58275 -71.30599 35026 ft 470 kts 71°
2026-04-29 20:27 -8.55821 -71.23290 35026 ft 470 kts 71°
2026-04-29 20:28 -8.53720 -71.17039 35026 ft 470 kts 71°
2026-04-29 20:28 -8.51606 -71.10791 35025 ft 470 kts 71°
2026-04-29 20:29 -8.49490 -71.04548 35024 ft 470 kts 71°
2026-04-29 20:29 -8.47374 -70.98298 35024 ft 470 kts 71°
2026-04-29 20:30 -8.45264 -70.92054 35024 ft 470 kts 71°
2026-04-29 20:30 -8.43155 -70.85807 35023 ft 470 kts 71°
2026-04-29 20:31 -8.41041 -70.79575 35023 ft 470 kts 71°
2026-04-29 20:31 -8.38917 -70.73327 35022 ft 470 kts 71°
2026-04-29 20:32 -8.36804 -70.67084 35022 ft 470 kts 71°
2026-04-29 20:32 -8.34689 -70.60842 35022 ft 470 kts 71°
2026-04-29 20:33 -8.32573 -70.54604 35022 ft 470 kts 71°
2026-04-29 20:33 -8.30441 -70.48318 35022 ft 470 kts 71°
2026-04-29 20:34 -8.28317 -70.42078 35022 ft 470 kts 71°
2026-04-29 20:34 -8.26193 -70.35844 35023 ft 470 kts 71°
2026-04-29 20:35 -8.24071 -70.29603 35024 ft 470 kts 71°
2026-04-29 20:35 -8.21948 -70.23360 35025 ft 470 kts 71°
2026-04-29 20:36 -8.19825 -70.17115 35028 ft 470 kts 71°
2026-04-29 20:36 -8.17701 -70.10870 35027 ft 470 kts 71°
2026-04-29 20:37 -8.15579 -70.04628 35026 ft 470 kts 71°
2026-04-29 20:37 -8.13452 -69.98393 35024 ft 470 kts 71°
2026-04-29 20:38 -8.11319 -69.92168 35024 ft 470 kts 71°
2026-04-29 20:38 -8.09185 -69.85925 35023 ft 470 kts 71°
2026-04-29 20:39 -8.07064 -69.79691 35024 ft 470 kts 71°
2026-04-29 20:39 -8.04935 -69.73459 35025 ft 470 kts 71°
2026-04-29 20:40 -8.02805 -69.67220 35026 ft 470 kts 71°
2026-04-29 20:40 -8.00669 -69.60992 35024 ft 470 kts 71°
2026-04-29 20:41 -7.98522 -69.54724 35022 ft 469 kts 71°
2026-04-29 20:41 -7.96384 -69.48499 35021 ft 470 kts 71°
2026-04-29 20:42 -7.94250 -69.42265 35023 ft 470 kts 71°
2026-04-29 20:42 -7.92113 -69.36037 35024 ft 470 kts 71°
2026-04-29 20:43 -7.89972 -69.29812 35024 ft 470 kts 71°
2026-04-29 20:43 -7.87844 -69.23582 35024 ft 470 kts 71°
2026-04-29 20:44 -7.85708 -69.17349 35024 ft 470 kts 71°
2026-04-29 20:44 -7.83562 -69.11124 35025 ft 470 kts 71°
2026-04-29 20:45 -7.81414 -69.04897 35027 ft 470 kts 71°
2026-04-29 20:45 -7.79275 -68.98675 35025 ft 470 kts 71°
2026-04-29 20:46 -7.77134 -68.92445 35024 ft 470 kts 71°
2026-04-29 20:46 -7.74992 -68.86222 35026 ft 470 kts 71°
2026-04-29 20:47 -7.72837 -68.79994 35026 ft 470 kts 71°
2026-04-29 20:47 -7.71044 -68.74775 35027 ft 470 kts 71°
2026-04-29 20:48 -7.68550 -68.67536 35027 ft 470 kts 71°
2026-04-29 20:48 -7.66393 -68.61315 35027 ft 470 kts 71°
2026-04-29 20:49 -7.64231 -68.55091 35027 ft 470 kts 71°
2026-04-29 20:49 -7.62058 -68.48824 35028 ft 470 kts 71°
2026-04-29 20:50 -7.59902 -68.42601 35027 ft 470 kts 71°
2026-04-29 20:50 -7.57737 -68.36384 35026 ft 470 kts 71°
2026-04-29 20:51 -7.55575 -68.30168 35026 ft 470 kts 71°
2026-04-29 20:51 -7.53413 -68.23959 35026 ft 470 kts 71°
2026-04-29 20:52 -7.51599 -68.18746 35025 ft 470 kts 71°
2026-04-29 20:52 -7.49436 -68.12527 35027 ft 470 kts 71°
2026-04-29 20:53 -7.47272 -68.06307 35026 ft 470 kts 71°
2026-04-29 20:53 -7.45105 -68.00096 35027 ft 470 kts 71°
2026-04-29 20:54 -7.41857 -67.90775 35026 ft 470 kts 71°
2026-04-29 20:55 -7.39689 -67.84557 35027 ft 470 kts 71°
2026-04-29 20:55 -7.37520 -67.78339 35027 ft 470 kts 71°
2026-04-29 20:56 -7.35356 -67.72124 35028 ft 470 kts 71°
2026-04-29 20:56 -7.33185 -67.65903 35028 ft 470 kts 71°
2026-04-29 20:57 -7.31006 -67.59689 35030 ft 471 kts 71°
2026-04-29 20:57 -7.28829 -67.53472 35030 ft 471 kts 71°
2026-04-29 20:58 -7.26654 -67.47257 35030 ft 471 kts 71°
2026-04-29 20:58 -7.24469 -67.40993 35031 ft 471 kts 71°
2026-04-29 20:59 -7.22290 -67.34774 35031 ft 471 kts 70°
2026-04-29 20:59 -7.20104 -67.28561 35032 ft 471 kts 71°
2026-04-29 21:00 -7.17925 -67.22337 35032 ft 471 kts 71°
2026-04-29 21:00 -7.15747 -67.16119 35033 ft 471 kts 71°
2026-04-29 21:01 -7.13559 -67.09896 35033 ft 471 kts 70°
2026-04-29 21:01 -7.11376 -67.03682 35032 ft 471 kts 71°
2026-04-29 21:02 -7.09193 -66.97463 35033 ft 471 kts 71°
2026-04-29 21:02 -7.07015 -66.91243 35032 ft 471 kts 71°
2026-04-29 21:03 -7.04827 -66.85032 35031 ft 471 kts 70°
2026-04-29 21:03 -7.02641 -66.78819 35032 ft 471 kts 71°
2026-04-29 21:04 -7.00453 -66.72601 35032 ft 471 kts 70°
2026-04-29 21:04 -6.98269 -66.66390 35031 ft 471 kts 71°
2026-04-29 21:05 -6.96070 -66.60140 35030 ft 471 kts 70°
2026-04-29 21:05 -6.93879 -66.53934 35029 ft 471 kts 70°
2026-04-29 21:06 -6.91694 -66.47730 35029 ft 470 kts 70°
2026-04-29 21:06 -6.89511 -66.41520 35029 ft 470 kts 71°
2026-04-29 21:07 -6.87321 -66.35316 35028 ft 470 kts 70°
2026-04-29 21:07 -6.85122 -66.29118 35028 ft 470 kts 70°
2026-04-29 21:08 -6.82929 -66.22919 35027 ft 470 kts 70°
2026-04-29 21:08 -6.80747 -66.16721 35027 ft 470 kts 70°
2026-04-29 21:09 -6.78557 -66.10525 35026 ft 470 kts 70°
2026-04-29 21:09 -6.76364 -66.04329 35027 ft 470 kts 70°
2026-04-29 21:10 -6.74166 -65.98130 35026 ft 470 kts 70°
2026-04-29 21:10 -6.71973 -65.91942 35024 ft 470 kts 70°
2026-04-29 21:11 -6.69789 -65.85752 35023 ft 470 kts 71°
2026-04-29 21:11 -6.67608 -65.79558 35023 ft 470 kts 70°
2026-04-29 21:12 -6.65401 -65.73324 35024 ft 470 kts 70°
2026-04-29 21:12 -6.63192 -65.67131 35025 ft 470 kts 70°
2026-04-29 21:13 -6.60984 -65.60940 35026 ft 470 kts 70°
2026-04-29 21:13 -6.58784 -65.54744 35028 ft 471 kts 70°
2026-04-29 21:14 -6.56581 -65.48543 35030 ft 471 kts 70°
2026-04-29 21:14 -6.54385 -65.42338 35032 ft 471 kts 70°
2026-04-29 21:15 -6.52184 -65.36139 35032 ft 471 kts 70°
2026-04-29 21:15 -6.49975 -65.29938 35031 ft 471 kts 70°
2026-04-29 21:16 -6.47771 -65.23739 35030 ft 471 kts 70°
2026-04-29 21:16 -6.45570 -65.17546 35029 ft 470 kts 70°
2026-04-29 21:17 -6.43375 -65.11350 35028 ft 470 kts 70°
2026-04-29 21:17 -6.41168 -65.05161 35028 ft 470 kts 70°
2026-04-29 21:18 -6.38952 -64.98974 35029 ft 470 kts 70°
2026-04-29 21:18 -6.36747 -64.92785 35028 ft 470 kts 70°
2026-04-29 21:19 -6.34538 -64.86589 35027 ft 470 kts 70°
2026-04-29 21:19 -6.32316 -64.80364 35027 ft 470 kts 70°
2026-04-29 21:20 -6.30109 -64.74176 35027 ft 470 kts 70°
2026-04-29 21:20 -6.27903 -64.67988 35027 ft 470 kts 70°
2026-04-29 21:21 -6.25695 -64.61804 35026 ft 470 kts 70°
2026-04-29 21:21 -6.23483 -64.55621 35025 ft 470 kts 70°
2026-04-29 21:22 -6.21273 -64.49446 35024 ft 470 kts 70°
2026-04-29 21:22 -6.19063 -64.43272 35024 ft 470 kts 70°
2026-04-29 21:23 -6.16855 -64.37092 35023 ft 470 kts 70°
2026-04-29 21:23 -6.14647 -64.30906 35025 ft 470 kts 70°
2026-04-29 21:24 -6.12431 -64.24724 35026 ft 470 kts 70°
2026-04-29 21:24 -6.10216 -64.18539 35026 ft 470 kts 70°
2026-04-29 21:25 -6.08363 -64.13363 35027 ft 470 kts 70°
2026-04-29 21:25 -6.05785 -64.06178 35026 ft 470 kts 70°
2026-04-29 21:26 -6.03930 -64.01006 35026 ft 470 kts 70°
2026-04-29 21:26 -6.01713 -63.94823 35026 ft 470 kts 70°
2026-04-29 21:27 -5.99491 -63.88649 35026 ft 470 kts 70°
2026-04-29 21:27 -5.97279 -63.82471 35025 ft 470 kts 70°
2026-04-29 21:28 -5.95062 -63.76289 35025 ft 470 kts 70°
2026-04-29 21:28 -5.92838 -63.70116 35024 ft 470 kts 70°
2026-04-29 21:29 -5.90620 -63.63948 35023 ft 470 kts 70°
2026-04-29 21:29 -5.88399 -63.57775 35025 ft 470 kts 70°
2026-04-29 21:30 -5.86180 -63.51597 35025 ft 470 kts 70°
2026-04-29 21:30 -5.83964 -63.45423 35025 ft 470 kts 70°
2026-04-29 21:31 -5.81744 -63.39251 35024 ft 470 kts 70°
2026-04-29 21:31 -5.79516 -63.33085 35023 ft 470 kts 70°
2026-04-29 21:32 -5.77288 -63.26922 35023 ft 470 kts 70°
2026-04-29 21:32 -5.75051 -63.20711 35022 ft 470 kts 70°
2026-04-29 21:33 -5.72159 -63.14857 35020 ft 470 kts 54°
2026-04-29 21:33 -5.67970 -63.09837 35029 ft 469 kts 49°
2026-04-29 21:34 -5.63713 -63.04871 35021 ft 469 kts 49°
2026-04-29 21:34 -5.59469 -62.99893 35019 ft 469 kts 49°
2026-04-29 21:35 -5.55215 -62.94924 35018 ft 470 kts 49°
2026-04-29 21:35 -5.50945 -62.89955 35020 ft 470 kts 49°
2026-04-29 21:36 -5.46695 -62.85000 35020 ft 470 kts 49°
2026-04-29 21:36 -5.42511 -62.80132 35021 ft 470 kts 49°
2026-04-29 21:37 -5.38233 -62.75163 35022 ft 470 kts 49°
2026-04-29 21:37 -5.33962 -62.70195 35023 ft 470 kts 49°
2026-04-29 21:38 -5.29691 -62.65229 35023 ft 470 kts 49°
2026-04-29 21:38 -5.25417 -62.60256 35024 ft 470 kts 49°
2026-04-29 21:39 -5.21142 -62.55290 35024 ft 470 kts 49°
2026-04-29 21:39 -5.16841 -62.50290 35024 ft 470 kts 49°
2026-04-29 21:40 -5.12579 -62.45332 35025 ft 470 kts 49°
2026-04-29 21:40 -5.08301 -62.40348 35025 ft 470 kts 49°
2026-04-29 21:41 -5.04035 -62.35389 35025 ft 470 kts 49°
2026-04-29 21:41 -4.99758 -62.30422 35024 ft 470 kts 49°
2026-04-29 21:42 -4.95479 -62.25461 35024 ft 470 kts 49°
2026-04-29 21:42 -4.91202 -62.20501 35024 ft 470 kts 49°
2026-04-29 21:43 -4.86927 -62.15538 35023 ft 470 kts 49°
2026-04-29 21:43 -4.82656 -62.10579 35023 ft 470 kts 49°
2026-04-29 21:44 -4.78381 -62.05621 35022 ft 470 kts 49°
2026-04-29 21:44 -4.74110 -62.00666 35020 ft 470 kts 49°
2026-04-29 21:45 -4.69834 -61.95710 35019 ft 470 kts 49°
2026-04-29 21:45 -4.65556 -61.90752 35020 ft 470 kts 49°
2026-04-29 21:46 -4.61284 -61.85797 35024 ft 470 kts 49°
2026-04-29 21:46 -4.56980 -61.80809 35021 ft 470 kts 49°
2026-04-29 21:47 -4.52703 -61.75846 35022 ft 470 kts 49°
2026-04-29 21:47 -4.48423 -61.70897 35023 ft 470 kts 49°
2026-04-29 21:48 -4.44139 -61.65938 35023 ft 470 kts 49°
2026-04-29 21:48 -4.39862 -61.60982 35024 ft 470 kts 49°
2026-04-29 21:49 -4.35588 -61.56027 35024 ft 470 kts 49°
2026-04-29 21:49 -4.31306 -61.51067 35024 ft 470 kts 49°
2026-04-29 21:50 -4.27028 -61.46114 35024 ft 470 kts 49°
2026-04-29 21:50 -4.22743 -61.41162 35024 ft 470 kts 49°
2026-04-29 21:51 -4.18463 -61.36213 35025 ft 470 kts 49°
2026-04-29 21:51 -4.12044 -61.28777 35025 ft 470 kts 49°
2026-04-29 21:52 -4.07768 -61.23835 35025 ft 470 kts 49°
2026-04-29 21:52 -4.03454 -61.18855 35025 ft 470 kts 49°
2026-04-29 21:53 -3.99174 -61.13898 35034 ft 469 kts 49°
2026-04-29 21:53 -3.94909 -61.08970 35035 ft 468 kts 49°
2026-04-29 21:54 -3.90643 -61.04055 35032 ft 467 kts 49°
2026-04-29 21:54 -3.86409 -60.99142 34235 ft 463 kts 49°
2026-04-29 21:55 -3.84294 -60.96684 32577 ft 469 kts 49°
2026-04-29 21:55 -3.82149 -60.94199 30835 ft 474 kts 49°
2026-04-29 21:55 -3.79987 -60.91699 28989 ft 477 kts 49°
2026-04-29 21:55 -3.77800 -60.89175 26945 ft 480 kts 49°
2026-04-29 21:56 -3.75608 -60.86645 24809 ft 482 kts 49°
2026-04-29 21:56 -3.73410 -60.84105 22938 ft 479 kts 49°
2026-04-29 21:56 -3.71202 -60.81665 21332 ft 468 kts 44°
2026-04-29 21:56 -3.68729 -60.79604 19785 ft 457 kts 36°
2026-04-29 21:57 -3.66203 -60.77728 18223 ft 447 kts 36°
2026-04-29 21:57 -3.63734 -60.75891 16694 ft 438 kts 37°
2026-04-29 21:57 -3.61320 -60.74091 15207 ft 429 kts 37°
2026-04-29 21:57 -3.59746 -60.72916 14596 ft 425 kts 37°
2026-04-29 21:58 -3.57394 -60.71158 13844 ft 420 kts 37°
2026-04-29 21:58 -3.55028 -60.69388 13031 ft 417 kts 37°
2026-04-29 21:58 -3.52710 -60.67654 12263 ft 415 kts 37°
2026-04-29 21:58 -3.50410 -60.65933 11506 ft 411 kts 37°
2026-04-29 21:59 -3.48153 -60.64244 11181 ft 396 kts 37°
2026-04-29 21:59 -3.46006 -60.62639 11064 ft 375 kts 37°
2026-04-29 21:59 -3.43962 -60.61117 10922 ft 357 kts 37°
2026-04-29 21:59 -3.42011 -60.59666 10804 ft 341 kts 37°
2026-04-29 22:00 -3.40149 -60.58277 10678 ft 328 kts 37°
2026-04-29 22:00 -3.38355 -60.56938 10549 ft 315 kts 37°
2026-04-29 22:00 -3.36631 -60.55648 10432 ft 305 kts 37°
2026-04-29 22:00 -3.34952 -60.54394 10196 ft 298 kts 37°
2026-04-29 22:01 -3.33308 -60.53165 10130 ft 295 kts 37°
2026-04-29 22:01 -3.31663 -60.51938 10068 ft 295 kts 37°
2026-04-29 22:01 -3.30015 -60.50710 9899 ft 296 kts 37°
2026-04-29 22:01 -3.28358 -60.49474 9467 ft 298 kts 37°
2026-04-29 22:02 -3.26705 -60.48240 9095 ft 296 kts 37°
2026-04-29 22:02 -3.25074 -60.47021 8991 ft 289 kts 37°
2026-04-29 22:02 -3.23503 -60.45851 9004 ft 290 kts 37°
2026-04-29 22:02 -3.21883 -60.44644 9022 ft 291 kts 37°
2026-04-29 22:03 -3.20263 -60.43439 9010 ft 290 kts 36°
2026-04-29 22:03 -3.18638 -60.42231 9009 ft 291 kts 37°
2026-04-29 22:03 -3.17016 -60.41025 8881 ft 291 kts 37°
2026-04-29 22:03 -3.15403 -60.39822 8237 ft 289 kts 37°
2026-04-29 22:04 -3.13786 -60.38616 7512 ft 290 kts 37°
2026-04-29 22:04 -3.12165 -60.37407 6733 ft 292 kts 37°
2026-04-29 22:04 -3.10536 -60.36193 6058 ft 290 kts 37°
2026-04-29 22:04 -3.08951 -60.35011 5672 ft 278 kts 37°
2026-04-29 22:05 -3.07427 -60.33876 5371 ft 271 kts 37°
2026-04-29 22:05 -3.05923 -60.32758 5164 ft 266 kts 36°
2026-04-29 22:05 -3.03864 -60.29876 4509 ft 263 kts 81°
2026-04-29 22:06 -3.03794 -60.28031 4194 ft 262 kts 91°
2026-04-29 22:06 -3.03808 -60.26240 3901 ft 260 kts 91°
2026-04-29 22:06 -3.03815 -60.24433 3731 ft 252 kts 90°
2026-04-29 22:06 -3.03819 -60.22691 3452 ft 250 kts 90°
2026-04-29 22:07 -3.03823 -60.20988 3136 ft 238 kts 90°
2026-04-29 22:07 -3.03826 -60.19462 2846 ft 224 kts 90°
2026-04-29 22:07 -3.03829 -60.18320 2628 ft 215 kts 90°
2026-04-29 22:07 -3.03832 -60.16863 2350 ft 204 kts 90°
2026-04-29 22:08 -3.03835 -60.15489 2118 ft 192 kts 90°
2026-04-29 22:08 -3.03838 -60.14196 1839 ft 178 kts 91°
2026-04-29 22:08 -3.03841 -60.13027 1631 ft 158 kts 91°
2026-04-29 22:08 -3.03843 -60.11971 1417 ft 147 kts 91°
2026-04-29 22:09 -3.03845 -60.10962 1225 ft 144 kts 91°
2026-04-29 22:09 -3.03848 -60.09971 1037 ft 142 kts 91°
2026-04-29 22:09 -3.03850 -60.08985 846 ft 141 kts 91°
2026-04-29 22:09 -3.03852 -60.08007 668 ft 141 kts 91°
2026-04-29 22:10 -3.03853 -60.07027 489 ft 140 kts 91°
2026-04-29 22:10 -3.03852 -60.06051 315 ft 140 kts 91°
2026-04-29 22:10 -3.03872 -60.05045 271 ft 153 kts 93°
2026-04-29 22:10 -3.03943 -60.03947 286 ft 160 kts 95°
2026-04-29 22:11 -3.04025 -60.02950 266 ft 76 kts 346°
2026-04-29 22:11 -3.04165 -60.02500 239 ft 9 kts 255°
2026-04-29 22:11 -3.04171 -60.02512 238 ft 0 kts 251°